Location: Pasadena, ca
(34.1243°N, 118.1037°W)
Time: 14:26:00
(UTC-08:00)

N. Korean satellite - Pass Details

Date: 15 October 2017
Orbit: 461 x 513 km, 97.2° (Epoch: 17 December)

Event Time Altitude Azimuth Distance (km) Brightness Sun altitude
Rises 19:07:13 0° 173° (S) 2,549 10.2 -11.0°
Reaches altitude 10° 19:09:18 10° 176° (S) 1,663 9.3 -11.4°
Maximum altitude 19:12:51 68° 259° (W) 520 6.9 -12.2°
Drops below altitude 10° 19:16:22 10° 343° (NNW) 1,646 9.4 -12.9°
Sets 19:18:25 0° 346° (NNW) 2,519 10.4 -13.3°
